Location: Lake Sonoma
(38.7200°N, 123.0564°W)
Time: 04:23:33
(UTC-08:00)

Amateur Radio Satellites - All Passes

Search period start: 26 January 2015 03:53
Search period end: 27 January 2015 03:53
Location: Lake Sonoma, 38.7200°N, 123.0564°W

Satellite Date Start Highest point End Downlink Frequencies (MHz)
Time Altitude Azimuth
BEESAT 2 26 Jan 03:58:37 04:02:27 35° 308° (NW) 04:06:18 435.950
DANDE 26 Jan 04:09:32 04:16:46 44° 90° (E) 04:24:53 436.750
BEESAT 3 26 Jan 04:17:12 04:20:28 22° 312° (NW) 04:23:42 437.485
MOZHAYETS 4 26 Jan 04:22:02 04:26:38 86° 254° (WSW) 04:31:16
GONETS M04 26 Jan 04:26:31 04:29:57 12° 304° (WNW) 04:32:39
AO-7 26 Jan 04:28:03 04:36:25 74° 105° (ESE) 04:44:42 29.400- 29.500
STRAND 1 26 Jan 04:49:58 04:51:40 12° 62° (ENE) 04:53:40 437.568
HORYU 2 26 Jan 04:51:03 04:54:10 18° 293° (WNW) 04:57:06 437.375
ISS 26 Jan 04:56:23 04:59:16 27° 29° (NNE) 05:02:09 145.825
CUSAT 1 26 Jan 04:56:43 05:04:37 81° 280° (W) 05:13:12 437.405
RS-15 26 Jan 05:09:56 05:20:33 62° 114° (ESE) 05:31:18 29.354- 29.394
AIST 2 26 Jan 05:15:29 05:18:23 17° 315° (NW) 05:21:12 435.215
PCSat 26 Jan 05:17:45 05:23:10 83° 297° (WNW) 05:28:38 145.827
JAS-2 26 Jan 05:19:57 05:25:31 76° 285° (WNW) 05:31:46 435.910
DANDE 26 Jan 05:52:48 06:00:19 43° 289° (WNW) 06:08:26 436.750
PRISM 26 Jan 05:58:47 06:02:53 67° 258° (WSW) 06:07:00 437.425
CUBESAT XI-V 26 Jan 06:04:34 06:09:09 84° 77° (ENE) 06:13:47 437.345
Cubesat XI-IV 26 Jan 06:19:48 06:25:06 58° 100° (E) 06:30:24 437.490
AO-7 26 Jan 06:22:01 06:28:33 25° 303° (WNW) 06:34:47 29.400- 29.500
STRAND 1 26 Jan 06:25:10 06:30:16 82° 259° (WSW) 06:35:24 437.568
YUBILEINY 26 Jan 06:32:13 06:40:27 44° 74° (ENE) 06:48:48 435.215
ISS 26 Jan 06:32:47 06:35:49 34° 225° (SW) 06:38:50 145.825
CUTE-I 26 Jan 06:40:46 06:46:11 89° 93° (E) 06:51:35 437.470
CUSAT 1 26 Jan 06:43:40 06:49:10 18° 301° (WNW) 06:54:21 437.405
PCSat 26 Jan 07:04:40 07:07:32 14° 318° (NW) 07:10:11 145.827
RS-15 26 Jan 07:23:27 07:33:33 40° 318° (NW) 07:43:41 29.354- 29.394
Cubesat XI-IV 26 Jan 08:01:09 08:04:48 18° 296° (WNW) 08:08:14 437.490
SEEDS 26 Jan 08:03:18 08:04:30 11° 89° (E) 08:05:59 437.485
HO-68 26 Jan 08:05:40 08:11:21 26° 93° (E) 08:17:13 435.675
BRITE-PL 26 Jan 08:20:13 08:25:31 40° 96° (E) 08:30:42 437.365/2234.400
CUTE-I 26 Jan 08:23:33 08:25:36 12° 299° (WNW) 08:27:19 437.470
YUBILEINY 26 Jan 08:29:16 08:37:12 38° 273° (W) 08:45:00 435.215
GOMX 1 26 Jan 08:32:58 08:37:57 36° 95° (E) 08:42:47 467.674
COMPASS 1 26 Jan 08:33:05 08:36:15 21° 93° (E) 08:39:30 437.405
VERMONT LUNAR 26 Jan 08:36:42 08:37:55 12° 144° (SE) 08:39:14 437.305
CANX-2 26 Jan 08:36:45 08:40:42 37° 97° (E) 08:44:38 2200.000
Oscar 11 26 Jan 08:52:08 08:54:32 15° 91° (E) 08:57:07 145.826/435.025
ANTELSAT 26 Jan 08:52:28 08:55:09 16° 66° (ENE) 08:58:01 437.575/2403.000
DOVE 4 26 Jan 09:00:50 09:05:54 48° 97° (E) 09:10:46 437.250
CUTE 1.7 + AOD 2 26 Jan 09:01:13 09:05:27 68° 101° (ESE) 09:09:39 437.475
AAUSAT CUBESAT 2 26 Jan 09:01:25 09:05:21 40° 98° (E) 09:09:15 437.432
TIGRISAT 26 Jan 09:01:39 09:04:51 19° 67° (ENE) 09:08:11 435.000
CUBEBUG 2 26 Jan 09:11:14 09:14:19 18° 91° (E) 09:17:29 437.445
CINEMA 3 26 Jan 09:12:45 09:17:11 34° 95° (E) 09:21:28 145.822/145.860
POPSAT HIP 1 26 Jan 09:13:46 09:15:48 14° 66° (ENE) 09:18:01 437.405
PHONESAT 2.4 26 Jan 09:15:19 09:17:08 14° 145° (SE) 09:19:03 2401.200-2431.200
DELFI C3 26 Jan 09:16:05 09:19:12 22° 94° (E) 09:22:23 145.870
DUCHIFAT 1 26 Jan 09:18:05 09:20:24 15° 67° (ENE) 09:22:55 145.980
UKube-1 26 Jan 09:25:06 09:28:13 20° 93° (E) 09:31:28 .
ZACube-1 26 Jan 09:33:07 09:36:29 21° 92° (E) 09:39:52 437.345
SEEDS 26 Jan 09:36:39 09:40:46 53° 286° (WNW) 09:44:49 437.485
DX 1 26 Jan 09:41:21 09:45:15 31° 97° (E) 09:49:12 434.975-435.025
RS-15 26 Jan 09:43:28 09:50:19 17° 350° (N) 09:57:09 29.354- 29.394
FUNcube-1 26 Jan 09:45:52 09:49:43 29° 95° (E) 09:53:31 145.935
NANOSAT C BR1 26 Jan 09:50:13 09:54:02 33° 71° (ENE) 09:57:55 145.865
UNISAT 6 26 Jan 09:51:08 09:55:48 62° 75° (ENE) 10:00:29 437.425
AISAT 26 Jan 09:51:12 09:53:45 15° 91° (E) 09:56:29 437.250
HO-68 26 Jan 09:52:31 09:59:30 56° 291° (WNW) 10:06:25 435.675
UWE-3 26 Jan 09:57:19 10:01:44 49° 98° (E) 10:06:00 435.000/436.395/437.385
BRITE-PL 26 Jan 09:59:01 10:03:50 28° 292° (WNW) 10:08:26 437.365/2234.400
HUMSAT D 26 Jan 10:01:43 10:05:05 23° 94° (E) 10:08:30 437.325/437.525
QB50P2 26 Jan 10:02:18 10:06:23 47° 74° (ENE) 10:10:33 145.880/145.840
50 SAT 26 Jan 10:08:19 10:11:16 20° 93° (E) 10:14:18 437.505
COMPASS 1 26 Jan 10:08:25 10:12:01 28° 289° (WNW) 10:15:32 437.405
GOMX 1 26 Jan 10:11:17 10:15:56 28° 292° (WNW) 10:20:20 467.674
VERMONT LUNAR 26 Jan 10:12:11 10:15:35 52° 158° (SSE) 10:19:01 437.305
QB50P1 26 Jan 10:12:42 10:16:54 62° 75° (ENE) 10:21:09 145.935-145.965
CANX-2 26 Jan 10:13:34 10:16:24 17° 292° (WNW) 10:19:04 2200.000
VELOX 1 26 Jan 10:20:09 10:24:06 31° 96° (E) 10:28:06 145.980
POLYITAN 1 26 Jan 10:25:08 10:29:25 88° 77° (ENE) 10:33:46 437.675
Oscar 11 26 Jan 10:26:54 10:31:00 43° 287° (WNW) 10:35:03 145.826/435.025
ANTELSAT 26 Jan 10:26:55 10:31:33 54° 260° (W) 10:36:12 437.575/2403.000
SO-50 26 Jan 10:35:26 10:39:32 35° 114° (ESE) 10:43:49 436.795
TIGRISAT 26 Jan 10:36:48 10:41:19 44° 262° (W) 10:45:49 435.000
AAUSAT CUBESAT 2 26 Jan 10:38:09 10:40:44 16° 292° (WNW) 10:43:09 437.432
CUBEBUG 1 26 Jan 10:39:00 10:42:14 20° 93° (E) 10:45:35 437.445
DOVE 4 26 Jan 10:39:26 10:43:19 20° 294° (WNW) 10:46:55 437.250
CUTE 1.7 + AOD 2 26 Jan 10:40:21 10:40:54 10° 295° (WNW) 10:41:11 437.475
BUGSAT 1 26 Jan 10:41:45 10:45:49 78° 257° (WSW) 10:49:58 437.445
BEESAT 2 26 Jan 10:43:18 10:44:39 11° 40° (NE) 10:46:09 435.950
CUBEBUG 2 26 Jan 10:46:56 10:51:16 39° 288° (WNW) 10:55:24 437.445
POPSAT HIP 1 26 Jan 10:47:08 10:51:18 51° 260° (W) 10:55:31 437.405
AIST 1 26 Jan 10:47:52 10:50:17 16° 88° (E) 10:52:55
CINEMA 3 26 Jan 10:50:16 10:54:13 24° 292° (WNW) 10:57:57 145.822/145.860
DELFI C3 26 Jan 10:51:02 10:54:27 26° 289° (WNW) 10:57:47 145.870
PHONESAT 2.4 26 Jan 10:51:43 10:55:17 57° 159° (SSE) 10:58:52 2401.200-2431.200
DUCHIFAT 1 26 Jan 10:51:50 10:55:56 46° 261° (W) 11:00:04 145.980
BEESAT 3 26 Jan 10:59:42 11:02:29 17° 45° (NE) 11:05:21 437.485
UKube-1 26 Jan 11:00:33 11:04:31 34° 289° (WNW) 11:08:25 .
ZACube-1 26 Jan 11:08:58 11:12:57 31° 289° (WNW) 11:16:47 437.345
DX 1 26 Jan 11:17:56 11:21:22 22° 292° (WNW) 11:24:43 434.975-435.025
ESTCUBE 1 26 Jan 11:18:41 11:23:10 60° 100° (E) 11:27:39 437.505/2401.250
FUNcube-1 26 Jan 11:22:22 11:25:58 24° 291° (WNW) 11:29:23 145.935
AISAT 26 Jan 11:26:21 11:30:42 47° 287° (WNW) 11:35:00 437.250
TISAT 1 26 Jan 11:26:24 11:28:45 15° 91° (E) 11:31:18 437.305
NANOSAT C BR1 26 Jan 11:26:56 11:30:02 19° 267° (W) 11:33:03 145.865
UNISAT 6 26 Jan 11:30:57 11:33:05 12° 271° (W) 11:34:56 437.425
UWE-3 26 Jan 11:35:10 11:37:53 15° 294° (WNW) 11:40:24 435.000/436.395/437.385
HUMSAT D 26 Jan 11:37:16 11:40:54 27° 290° (WNW) 11:44:24 437.325/437.525
QB50P2 26 Jan 11:40:24 11:42:39 14° 270° (W) 11:44:42 145.880/145.840
50 SAT 26 Jan 11:42:55 11:46:27 28° 289° (WNW) 11:49:55 437.505
VERMONT LUNAR 26 Jan 11:50:13 11:53:42 66° 353° (N) 11:57:14 437.305
QB50P1 26 Jan 11:52:43 11:53:18 10° 272° (W) 11:53:36 145.935-145.965
VELOX 1 26 Jan 11:56:57 12:00:35 23° 291° (WNW) 12:04:05 145.980
AIST 2 26 Jan 11:58:49 12:02:23 25° 49° (NE) 12:05:58 435.215
RS-15 26 Jan 12:00:03 12:08:25 24° 26° (NNE) 12:17:19 29.354- 29.394
SPROUT 26 Jan 12:12:31 12:16:47 52° 100° (E) 12:21:02 437.525
CUBEBUG 1 26 Jan 12:14:41 12:18:45 34° 288° (WNW) 12:22:44 437.445
SO-50 26 Jan 12:16:15 12:20:10 26° 313° (NW) 12:24:09 436.795
BEESAT 2 26 Jan 12:19:21 12:23:33 87° 242° (WSW) 12:27:40 435.950
AIST 1 26 Jan 12:23:44 12:27:41 37° 283° (WNW) 12:31:39
PCSat 26 Jan 12:27:14 12:27:42 10° 37° (NE) 12:28:28 145.827
PHONESAT 2.4 26 Jan 12:30:16 12:33:53 66° 355° (N) 12:37:32 2401.200-2431.200
Oscar 19 26 Jan 12:32:54 12:37:55 53° 73° (ENE) 12:42:59 437.125/150
GONETS M04 26 Jan 12:34:09 12:42:41 58° 77° (ENE) 12:51:13
BEESAT 3 26 Jan 12:36:55 12:40:56 47° 244° (WSW) 12:44:52 437.485
ITAMSAT 1 26 Jan 12:43:06 12:47:05 24° 67° (ENE) 12:51:12 435.822/435.867
ESTCUBE 1 26 Jan 12:57:26 12:59:37 13° 295° (WNW) 13:01:35 437.505/2401.250
TISAT 1 26 Jan 13:00:46 13:04:52 43° 287° (WNW) 13:08:55 437.305
Gurwin Techsat 1B 26 Jan 13:20:51 13:25:37 36° 70° (ENE) 13:30:28 435.225
VERMONT LUNAR 26 Jan 13:28:28 13:32:00 79° 11° (N) 13:35:33 437.305
SWISSCUBE 26 Jan 13:34:13 13:38:58 61° 101° (E) 13:43:42 437.505
AO-7 26 Jan 13:36:28 13:41:42 19° 54° (NE) 13:47:19 29.400- 29.500
AIST 2 26 Jan 13:37:15 13:41:03 31° 246° (WSW) 13:44:44 435.215
SPROUT 26 Jan 13:50:12 13:52:29 14° 294° (WNW) 13:54:35 437.525
BEESAT 26 Jan 13:50:38 13:55:26 84° 104° (ESE) 14:00:12 436.000
ITUPSAT 1 26 Jan 13:52:30 13:57:20 85° 105° (ESE) 14:02:07 437.325
CUSAT 1 26 Jan 14:02:19 14:03:38 11° 53° (NE) 14:05:17 437.405
PCSat 26 Jan 14:07:04 14:12:26 58° 59° (ENE) 14:17:46 145.827
PHONESAT 2.4 26 Jan 14:08:58 14:12:37 83° 11° (N) 14:16:18 2401.200-2431.200
HORYU 2 26 Jan 14:10:51 14:14:50 32° 71° (ENE) 14:18:53 437.375
RS-15 26 Jan 14:12:17 14:23:36 67° 54° (NE) 14:35:27 29.354- 29.394
Oscar 19 26 Jan 14:14:10 14:17:39 17° 269° (W) 14:20:56 437.125/150
ITAMSAT 1 26 Jan 14:21:31 14:26:23 40° 262° (W) 14:31:15 435.822/435.867
GONETS M04 26 Jan 14:31:55 14:39:04 28° 275° (W) 14:45:55
M-CUBED/EXP-1 PRIME 26 Jan 14:43:21 14:44:23 11° 97° (E) 14:45:36 437.505
DANDE 26 Jan 14:56:52 15:02:50 29° 65° (ENE) 15:07:39 436.750
Gurwin Techsat 1B 26 Jan 15:01:13 15:05:42 27° 266° (W) 15:10:06 435.225
KKS-1 26 Jan 15:01:24 15:05:56 85° 285° (WNW) 15:10:24 437.445
STARS 26 Jan 15:01:58 15:06:24 63° 101° (E) 15:10:48 437.465
VERMONT LUNAR 26 Jan 15:06:46 15:10:00 33° 207° (SSW) 15:13:13 437.305
SWISSCUBE 26 Jan 15:13:47 15:16:23 14° 296° (WNW) 15:18:47 437.505
AUBIESAT-1 26 Jan 15:17:31 15:20:26 29° 103° (ESE) 15:23:27 437.475
AO-7 26 Jan 15:25:07 15:33:30 86° 72° (ENE) 15:41:55 29.400- 29.500
BEESAT 26 Jan 15:31:40 15:32:41 10° 298° (WNW) 15:33:25 436.000
JAS-2 26 Jan 15:31:48 15:36:53 36° 71° (ENE) 15:41:42 435.910
ITUPSAT 1 26 Jan 15:33:47 15:34:37 10° 298° (WNW) 15:35:09 437.325
CUSAT 1 26 Jan 15:41:55 15:48:32 80° 79° (E) 15:53:25 437.405
PHONESAT 2.4 26 Jan 15:47:46 15:51:02 31° 208° (SSW) 15:54:18 2401.200-2431.200
HORYU 2 26 Jan 15:48:01 15:51:35 22° 266° (W) 15:55:03 437.375
PCSat 26 Jan 15:51:47 15:55:25 18° 254° (WSW) 15:58:49 145.827
Cubesat XI-IV 26 Jan 16:05:39 16:06:30 11° 60° (ENE) 16:07:41 437.490
O/OREOS (USA 219) 26 Jan 16:06:59 16:10:43 27° 104° (ESE) 16:14:34 437.305
M-CUBED/EXP-1 PRIME 26 Jan 16:16:36 16:19:37 32° 292° (WNW) 16:22:38 437.505
MOZHAYETS 4 26 Jan 16:19:14 16:22:56 24° 94° (E) 16:26:42
CUTE-I 26 Jan 16:24:06 16:27:10 16° 63° (ENE) 16:30:29 437.470
RS-15 26 Jan 16:25:30 16:35:30 35° 253° (WSW) 16:45:30 29.354- 29.394
DANDE 26 Jan 16:40:10 16:46:33 39° 272° (W) 16:51:23 436.750
STARS 26 Jan 16:40:31 16:42:26 12° 296° (WNW) 16:44:07 437.465
AUBIESAT-1 26 Jan 16:53:30 16:55:14 13° 296° (WNW) 16:56:51 437.475
JAS-2 26 Jan 17:17:27 17:22:09 25° 265° (W) 17:26:27 435.910
AO-7 26 Jan 17:21:48 17:27:24 18° 271° (W) 17:32:32 29.400- 29.500
CUSAT 1 26 Jan 17:28:03 17:30:12 12° 282° (WNW) 17:31:50 437.405
Cubesat XI-IV 26 Jan 17:40:34 17:45:52 83° 77° (ENE) 17:51:15 437.490
PRISM 26 Jan 17:43:54 17:46:44 18° 93° (E) 17:49:43 437.425
O/OREOS (USA 219) 26 Jan 17:46:17 17:50:06 26° 300° (WNW) 17:53:55 437.305
MOZHAYETS 4 26 Jan 17:56:13 18:00:11 29° 290° (WNW) 18:04:06
CUTE-I 26 Jan 18:01:31 18:06:47 64° 259° (WSW) 18:12:06 437.470
CUBESAT XI-V 26 Jan 18:03:19 18:07:02 24° 93° (E) 18:10:51 437.345
HO-68 26 Jan 18:34:38 18:39:00 18° 58° (ENE) 18:43:42 435.675
STRAND 1 26 Jan 18:37:18 18:42:03 37° 97° (E) 18:46:49 437.568
SO-50 26 Jan 19:08:01 19:12:09 27° 48° (NE) 19:16:20 436.795
JUGNU 26 Jan 19:17:40 19:19:11 11° 174° (S) 19:20:46 437.505
PRISM 26 Jan 19:18:40 19:22:23 32° 289° (WNW) 19:26:05 437.425
COMPASS 1 26 Jan 19:24:39 19:26:46 14° 67° (ENE) 19:29:03 437.405
Cubesat XI-IV 26 Jan 19:25:26 19:26:46 11° 273° (W) 19:27:43 437.490
CANX-2 26 Jan 19:28:59 19:32:25 24° 70° (ENE) 19:35:57 2200.000
BRITE-PL 26 Jan 19:29:39 19:34:06 36° 70° (ENE) 19:38:59 437.365/2234.400
YUBILEINY 26 Jan 19:31:16 19:39:32 53° 91° (E) 19:47:55 435.215
GOMX 1 26 Jan 19:39:37 19:43:59 32° 69° (ENE) 19:48:42 467.674
CUBESAT XI-V 26 Jan 19:40:22 19:44:33 32° 289° (WNW) 19:48:41 437.345
Oscar 11 26 Jan 19:47:30 19:48:35 11° 65° (ENE) 19:49:55 145.826/435.025
AAUSAT CUBESAT 2 26 Jan 19:51:46 19:55:08 24° 70° (ENE) 19:58:35 437.432
CUTE 1.7 + AOD 2 26 Jan 19:52:55 19:56:56 41° 73° (ENE) 20:00:59 437.475
DELFI C3 26 Jan 20:04:42 20:06:26 13° 67° (ENE) 20:08:22 145.870
DOVE 4 26 Jan 20:04:48 20:09:24 41° 72° (ENE) 20:14:19 437.250
CUBEBUG 2 26 Jan 20:08:54 20:11:32 15° 66° (ENE) 20:14:23 437.445
CINEMA 3 26 Jan 20:13:04 20:17:13 29° 69° (ENE) 20:21:33 145.822/145.860
STRAND 1 26 Jan 20:16:53 20:21:05 25° 293° (WNW) 20:25:10 437.568
HO-68 26 Jan 20:18:48 20:25:58 85° 255° (WSW) 20:33:10 435.675
UKube-1 26 Jan 20:19:51 20:22:18 15° 66° (ENE) 20:24:56 .
SEEDS 26 Jan 20:27:13 20:31:30 88° 85° (E) 20:35:47 437.485
ZACube-1 26 Jan 20:28:34 20:31:23 17° 67° (ENE) 20:34:22 437.345
DX 1 26 Jan 20:36:12 20:39:39 24° 69° (ENE) 20:43:12 434.975-435.025
FUNcube-1 26 Jan 20:40:47 20:44:13 22° 69° (ENE) 20:47:48 145.935
SO-50 26 Jan 20:48:14 20:52:51 40° 245° (WSW) 20:57:25 436.795
AISAT 26 Jan 20:49:17 20:51:06 13° 65° (ENE) 20:53:09 437.250
UWE-3 26 Jan 20:53:03 20:57:17 36° 71° (ENE) 21:01:36 435.000/436.395/437.385
HUMSAT D 26 Jan 20:53:28 20:56:02 16° 67° (ENE) 20:58:47 437.325/437.525
50 SAT 26 Jan 20:56:19 20:57:45 12° 66° (ENE) 20:59:24 437.505
COMPASS 1 26 Jan 20:58:02 21:02:09 48° 261° (W) 21:06:15 437.405
CANX-2 26 Jan 21:04:37 21:08:19 27° 265° (W) 21:11:56 2200.000
JUGNU 26 Jan 21:05:36 21:07:20 11° 185° (S) 21:09:02 437.505
BRITE-PL 26 Jan 21:08:42 21:12:46 25° 269° (W) 21:16:59 437.365/2234.400
VELOX 1 26 Jan 21:17:10 21:20:41 24° 69° (ENE) 21:24:18 145.980
GOMX 1 26 Jan 21:17:51 21:22:09 28° 267° (W) 21:26:36 467.674
Oscar 11 26 Jan 21:19:57 21:24:17 67° 259° (W) 21:28:38 145.826/435.025
AAUSAT CUBESAT 2 26 Jan 21:27:10 21:30:45 26° 265° (W) 21:34:15 437.432
YUBILEINY 26 Jan 21:29:09 21:36:46 32° 290° (WNW) 21:44:15 435.215
CUTE 1.7 + AOD 2 26 Jan 21:30:24 21:33:06 16° 269° (W) 21:35:39 437.475
CUBEBUG 1 26 Jan 21:35:10 21:37:32 15° 66° (ENE) 21:40:06 437.445
ISS 26 Jan 21:36:54 21:38:39 14° 130° (SE) 21:40:31 145.825
DELFI C3 26 Jan 21:37:21 21:41:19 49° 261° (W) 21:45:19 145.870
SRMSAT 26 Jan 21:40:19 21:42:24 12° 179° (S) 21:44:29 437.500
CUBEBUG 2 26 Jan 21:43:10 21:47:48 56° 260° (W) 21:52:32 437.445
DOVE 4 26 Jan 21:43:33 21:47:25 22° 269° (W) 21:51:17 437.250
UNISAT 6 26 Jan 21:46:39 21:48:51 14° 89° (E) 21:51:16 437.425
CINEMA 3 26 Jan 21:50:04 21:54:21 30° 266° (W) 21:58:43 145.822/145.860
UKube-1 26 Jan 21:53:59 21:58:09 46° 261° (W) 22:02:20 .
QB50P1 26 Jan 22:01:50 22:03:07 11° 89° (E) 22:04:39 145.935-145.965
ZACube-1 26 Jan 22:02:58 22:07:25 48° 262° (W) 22:11:53 437.345
HO-68 26 Jan 22:11:27 22:14:50 13° 273° (W) 22:17:41 435.675
DX 1 26 Jan 22:12:03 22:15:49 28° 264° (W) 22:19:34 434.975-435.025
POLYITAN 1 26 Jan 22:13:34 22:16:14 16° 91° (E) 22:19:03 437.675
FUNcube-1 26 Jan 22:16:11 22:20:23 35° 263° (W) 22:24:36 145.935
ESTCUBE 1 26 Jan 22:17:12 22:21:28 47° 73° (ENE) 22:25:48 437.505/2401.250
TISAT 1 26 Jan 22:20:08 22:20:28 10° 64° (ENE) 22:21:06 437.305
ANTELSAT 26 Jan 22:20:59 22:25:03 34° 96° (E) 22:29:02 437.575/2403.000
AISAT 26 Jan 22:22:53 22:27:16 61° 259° (W) 22:31:42 437.250
BUGSAT 1 26 Jan 22:26:35 22:29:23 17° 92° (E) 22:32:19 437.445
HUMSAT D 26 Jan 22:27:21 22:31:31 44° 261° (W) 22:35:42 437.325/437.525
50 SAT 26 Jan 22:28:23 22:32:27 56° 260° (W) 22:36:32 437.505
TIGRISAT 26 Jan 22:30:15 22:34:30 42° 98° (E) 22:38:39 435.000
UWE-3 26 Jan 22:30:19 22:33:57 22° 268° (W) 22:37:30 435.000/436.395/437.385
AIST 1 26 Jan 22:31:57 22:36:06 43° 78° (ENE) 22:40:16
POPSAT HIP 1 26 Jan 22:34:17 22:37:59 27° 95° (E) 22:41:42 437.405
DUCHIFAT 1 26 Jan 22:38:29 22:42:17 30° 96° (E) 22:46:06 145.980
VELOX 1 26 Jan 22:53:19 22:57:11 29° 264° (W) 23:01:01 145.980
SPROUT 26 Jan 23:05:41 23:09:32 34° 72° (ENE) 23:13:29 437.525
CUBEBUG 1 26 Jan 23:09:23 23:13:35 47° 261° (W) 23:17:48 437.445
ISS 26 Jan 23:11:39 23:14:53 55° 324° (NW) 23:18:08 145.825
NANOSAT C BR1 26 Jan 23:12:04 23:16:24 77° 101° (E) 23:20:41 145.865
UNISAT 6 26 Jan 23:21:43 23:26:03 48° 287° (WNW) 23:30:16 437.425
QB50P2 26 Jan 23:24:51 23:29:10 74° 284° (WNW) 23:33:27 145.880/145.840
QB50P1 26 Jan 23:35:13 23:39:28 56° 286° (WNW) 23:43:40 145.935-145.965
GONETS M04 26 Jan 23:44:34 23:46:09 11° 77° (ENE) 23:48:33
POLYITAN 1 26 Jan 23:48:20 23:52:24 39° 288° (WNW) 23:56:24 437.675
TISAT 1 26 Jan 23:51:35 23:55:48 70° 258° (WSW) 00:00:03 437.305
ESTCUBE 1 26 Jan 23:56:01 23:58:41 15° 269° (W) 00:01:09 437.505/2401.250
ANTELSAT 26 Jan 23:58:17 00:01:40 21° 292° (WNW) 00:04:52 437.575/2403.000
BUGSAT 1 27 Jan 00:01:05 00:05:03 37° 288° (WNW) 00:08:59 437.445
TIGRISAT 27 Jan 00:07:59 00:10:57 17° 294° (WNW) 00:13:43 435.000
POPSAT HIP 1 27 Jan 00:10:17 00:13:48 24° 291° (WNW) 00:17:13 437.405
AIST 1 27 Jan 00:11:04 00:13:26 14° 273° (W) 00:15:37
DUCHIFAT 1 27 Jan 00:14:39 00:18:00 22° 291° (WNW) 00:21:14 145.980
SWISSCUBE 27 Jan 00:39:34 00:44:14 60° 74° (ENE) 00:48:56 437.505
SPROUT 27 Jan 00:42:38 00:45:46 19° 268° (W) 00:48:49 437.525
Oscar 19 27 Jan 00:46:43 00:50:26 21° 92° (E) 00:54:18 437.125/150
ISS 27 Jan 00:50:19 00:52:00 13° 343° (NNW) 00:53:39 145.825
BEESAT 27 Jan 00:55:47 01:00:33 82° 74° (ENE) 01:05:21 436.000
ITUPSAT 1 27 Jan 00:58:01 01:02:47 85° 76° (ENE) 01:07:34 437.325
M-CUBED/EXP-1 PRIME 27 Jan 01:30:39 01:33:24 18° 65° (ENE) 01:36:07 437.505
GONETS M04 27 Jan 01:32:57 01:41:38 70° 93° (E) 01:50:19
Gurwin Techsat 1B 27 Jan 01:39:30 01:42:30 16° 90° (E) 01:45:45 435.225
STARS 27 Jan 01:57:45 02:01:59 46° 73° (ENE) 02:06:17 437.465
KKS-1 27 Jan 01:58:09 02:02:37 73° 76° (ENE) 02:07:07 437.445
AUBIESAT-1 27 Jan 02:04:52 02:08:42 39° 69° (ENE) 02:12:16 437.475
BEESAT 2 27 Jan 02:13:35 02:16:54 24° 113° (ESE) 02:20:20 435.950
O/OREOS (USA 219) 27 Jan 02:17:31 02:21:54 43° 64° (ENE) 02:26:18 437.305
SWISSCUBE 27 Jan 02:20:18 02:22:35 13° 271° (W) 02:24:36 437.505
Oscar 19 27 Jan 02:25:10 02:30:02 44° 289° (WNW) 02:34:52 437.125/150
BEESAT 3 27 Jan 02:29:42 02:33:33 42° 116° (ESE) 02:37:30 437.485
ITAMSAT 1 27 Jan 02:35:14 02:40:29 81° 101° (ESE) 02:45:44 435.822/435.867
M-CUBED/EXP-1 PRIME 27 Jan 03:04:23 03:08:15 34° 257° (WSW) 03:11:49 437.505
CUSAT 1 27 Jan 03:05:43 03:10:59 20° 83° (E) 03:16:52 437.405
Gurwin Techsat 1B 27 Jan 03:17:44 03:22:59 60° 287° (WNW) 03:28:11 435.225
MOZHAYETS 4 27 Jan 03:20:29 03:23:50 21° 69° (ENE) 03:27:20
AO-7 27 Jan 03:29:00 03:36:03 31° 95° (E) 03:43:15 29.400- 29.500
GONETS M04 27 Jan 03:32:26 03:39:23 24° 294° (WNW) 03:45:58
AIST 2 27 Jan 03:33:31 03:37:44 78° 120° (ESE) 03:42:03 435.215
STARS 27 Jan 03:36:09 03:38:47 15° 269° (W) 03:41:14 437.465
HORYU 2 27 Jan 03:39:40 03:44:08 80° 102° (ESE) 03:48:34 437.375
AUBIESAT-1 27 Jan 03:41:16 03:43:45 15° 261° (W) 03:45:58 437.475
